Location: Arrington
(35.8681°N, 86.7092°W)
Time: 01:53:33
(UTC+00:00)

Cosmos 1238 Rocket - Pass Details

Date: 23 November 2019
Orbit: 374 x 1033 km, 82.9° (Epoch: 15 December)

Event Time Altitude Azimuth Distance (km) Brightness Sun altitude
Rises 10:43:43 0° 180° (S) 3,760 7.2 -21.5°
Reaches altitude 10° 10:46:21 10° 179° (S) 2,785 6.5 -21.0°
Maximum altitude 10:52:50 76° 95° (E) 974 4.1 -19.7°
Drops below altitude 10° 10:58:35 10° 10° (N) 2,485 6.1 -18.5°
Sets 11:00:51 0° 9° (N) 3,333 6.8 -18.1°
